{"data":{"norad_id":64877,"epoch":"2026-09-19T22:52:08.101056Z","epoch_age_seconds":65506,"freshness":"FRESH","line1":"1 64877U 25155B   26262.95287154  .00000034  00000+0  35118-4 0  9997","line2":"2 64877  98.6140 222.4356 0000666  52.8845 307.2394 14.21502535 59860","mean_motion":14.21502535,"eccentricity":6.66e-5,"inclination_deg":98.614,"raan_deg":222.4356,"arg_perigee_deg":52.8845,"mean_anomaly_deg":307.2394,"bstar":3.5118e-5,"rev_number":5986,"period_min":101.30126148526,"perigee_km":819.79640075767,"apogee_km":820.75522934464,"semimajor_km":7198.4128150512,"source":"CELESTRAK","updated_at":"2026-09-20T09:00:33.981960Z"}}